QTR788 LGAV-LTFM

Flight info

Callsign QTR788
Flight time 0h 58m
Altitude 37000
Route KRO UN604 INBET
Aircraft A320/M-SDE3FGHIRWY/LB1

Departure

Time 2026-05-04 14:36
Airport Athens Eleftherios Venizelos International Airport (LGAV)

Arrival

Time 2026-05-04 15:35
Airport İstanbul Airport (LTFM)
Time Latitude Longitude Altitude Speed Heading
2026-05-04 14:17 37.93027 23.94336 288 ft 0 kts 45°
2026-05-04 14:28 37.93019 23.94325 288 ft 4 kts 43°
2026-05-04 14:29 37.92984 23.94273 288 ft 4 kts 63°
2026-05-04 14:29 37.92975 23.94250 291 ft 0 kts 64°
2026-05-04 14:33 37.92976 23.94255 292 ft 2 kts 72°
2026-05-04 14:33 37.92969 23.94277 291 ft 4 kts 131°
2026-05-04 14:33 37.92942 23.94303 289 ft 6 kts 143°
2026-05-04 14:33 37.92905 23.94337 293 ft 7 kts 143°
2026-05-04 14:34 37.92873 23.94374 290 ft 6 kts 132°
2026-05-04 14:34 37.92843 23.94424 294 ft 9 kts 126°
2026-05-04 14:34 37.92787 23.94456 291 ft 11 kts 195°
2026-05-04 14:34 37.92722 23.94397 294 ft 12 kts 217°
2026-05-04 14:35 37.92648 23.94326 296 ft 14 kts 217°
2026-05-04 14:35 37.92574 23.94281 297 ft 12 kts 168°
2026-05-04 14:35 37.92514 23.94364 293 ft 14 kts 125°
2026-05-04 14:35 37.92510 23.94477 295 ft 16 kts 43°
2026-05-04 14:36 37.92586 23.94547 293 ft 28 kts 35°
2026-05-04 14:36 37.92957 23.94896 285 ft 101 kts 37°
2026-05-04 14:36 37.93653 23.95590 306 ft 150 kts 43°
2026-05-04 14:36 37.94461 23.96433 935 ft 151 kts 40°
2026-05-04 14:37 37.95304 23.97257 1640 ft 156 kts 33°
2026-05-04 14:37 37.96218 23.98089 2148 ft 167 kts 32°
2026-05-04 14:37 37.97208 23.98951 2682 ft 178 kts 28°
2026-05-04 14:37 37.98244 23.99923 3168 ft 198 kts 42°
2026-05-04 14:38 37.98932 24.01556 3529 ft 231 kts 67°
2026-05-04 14:38 37.99439 24.03602 4045 ft 256 kts 69°
2026-05-04 14:38 37.99969 24.05830 4779 ft 270 kts 70°
2026-05-04 14:38 38.00511 24.08140 5712 ft 276 kts 70°
2026-05-04 14:39 38.01061 24.10496 6658 ft 281 kts 69°
2026-05-04 14:39 38.01624 24.12887 7594 ft 284 kts 69°
2026-05-04 14:39 38.02192 24.15292 8582 ft 286 kts 69°
2026-05-04 14:40 38.03348 24.20158 10375 ft 296 kts 69°
2026-05-04 14:40 38.03973 24.22755 10670 ft 320 kts 69°
2026-05-04 14:40 38.04635 24.25509 11219 ft 331 kts 70°
2026-05-04 14:40 38.05305 24.28325 11998 ft 334 kts 70°
2026-05-04 14:41 38.05975 24.31164 12814 ft 336 kts 70°
2026-05-04 14:41 38.06646 24.34016 13657 ft 338 kts 70°
2026-05-04 14:41 38.07997 24.39781 15079 ft 345 kts 70°
2026-05-04 14:42 38.09388 24.45679 16378 ft 353 kts 70°
2026-05-04 14:42 38.10090 24.48648 16929 ft 358 kts 70°
2026-05-04 14:42 38.10804 24.51679 17078 ft 359 kts 71°
2026-05-04 14:43 38.11515 24.54715 17103 ft 359 kts 71°
2026-05-04 14:43 38.12224 24.57756 17107 ft 359 kts 71°
2026-05-04 14:43 38.12934 24.60800 17112 ft 359 kts 71°
2026-05-04 14:43 38.13645 24.63845 17108 ft 359 kts 71°
2026-05-04 14:44 38.14354 24.66884 17108 ft 359 kts 71°
2026-05-04 14:44 38.15066 24.69928 17115 ft 359 kts 71°
2026-05-04 14:44 38.15832 24.72947 17111 ft 357 kts 65°
2026-05-04 14:44 38.16922 24.75768 17113 ft 355 kts 56°
2026-05-04 14:45 38.18353 24.78308 17105 ft 353 kts 48°
2026-05-04 14:45 38.19937 24.80700 17197 ft 357 kts 48°
2026-05-04 14:45 38.21532 24.83130 17905 ft 358 kts 48°
2026-05-04 14:45 38.23132 24.85574 18558 ft 361 kts 48°
2026-05-04 14:46 38.24775 24.88019 19126 ft 365 kts 47°
2026-05-04 14:46 38.26429 24.90429 19725 ft 367 kts 47°
2026-05-04 14:46 38.28125 24.92875 20323 ft 370 kts 47°
2026-05-04 14:46 38.29845 24.95355 20884 ft 374 kts 47°
2026-05-04 14:47 38.31567 24.97848 21459 ft 376 kts 47°
2026-05-04 14:47 38.33302 25.00372 21973 ft 380 kts 47°
2026-05-04 14:47 38.35045 25.02919 22512 ft 383 kts 47°
2026-05-04 14:47 38.36800 25.05489 23024 ft 387 kts 48°
2026-05-04 14:48 38.38575 25.08091 23509 ft 391 kts 47°
2026-05-04 14:48 38.40363 25.10714 23978 ft 393 kts 47°
2026-05-04 14:48 38.42164 25.13358 24418 ft 396 kts 48°
2026-05-04 14:48 38.43949 25.15982 24910 ft 397 kts 49°
2026-05-04 14:49 38.45763 25.18650 25354 ft 399 kts 49°
2026-05-04 14:49 38.47594 25.21345 25827 ft 401 kts 49°
2026-05-04 14:49 38.49419 25.24036 26278 ft 403 kts 49°
2026-05-04 14:49 38.51263 25.26754 26700 ft 405 kts 49°
2026-05-04 14:50 38.53111 25.29483 27123 ft 407 kts 49°
2026-05-04 14:50 38.54969 25.32228 27551 ft 410 kts 49°
2026-05-04 14:50 38.56837 25.34985 28036 ft 411 kts 49°
2026-05-04 14:50 38.58689 25.37717 28486 ft 412 kts 49°
2026-05-04 14:51 38.60591 25.40530 28943 ft 414 kts 49°
2026-05-04 14:51 38.62478 25.43328 29391 ft 416 kts 50°
2026-05-04 14:51 38.64345 25.46105 29819 ft 418 kts 50°
2026-05-04 14:51 38.66243 25.48929 30234 ft 419 kts 50°
2026-05-04 14:52 38.68151 25.51766 30579 ft 422 kts 50°
2026-05-04 14:52 38.70076 25.54624 30897 ft 424 kts 50°
2026-05-04 14:52 38.72013 25.57495 31214 ft 428 kts 49°
2026-05-04 14:52 38.73960 25.60388 31557 ft 430 kts 49°
2026-05-04 14:53 38.75889 25.63260 32009 ft 430 kts 49°
2026-05-04 14:53 38.77835 25.66162 32486 ft 429 kts 49°
2026-05-04 14:53 38.79780 25.69067 32962 ft 428 kts 49°
2026-05-04 14:53 38.81717 25.71967 33431 ft 428 kts 49°
2026-05-04 14:54 38.83652 25.74865 33899 ft 427 kts 49°
2026-05-04 14:54 38.85587 25.77767 34323 ft 427 kts 49°
2026-05-04 14:54 38.87521 25.80666 34702 ft 427 kts 49°
2026-05-04 14:54 38.89456 25.83572 35008 ft 429 kts 47°
2026-05-04 14:55 38.91397 25.86487 35334 ft 430 kts 47°
2026-05-04 14:55 38.93352 25.89418 35613 ft 432 kts 47°
2026-05-04 14:55 38.95285 25.92319 35924 ft 433 kts 47°
2026-05-04 14:55 38.97245 25.95268 36221 ft 435 kts 47°
2026-05-04 14:56 38.99209 25.98229 36522 ft 436 kts 47°
2026-05-04 14:56 39.01175 26.01200 36821 ft 437 kts 47°
2026-05-04 14:56 39.03151 26.04190 37026 ft 439 kts 47°
2026-05-04 14:56 39.05130 26.07185 37074 ft 440 kts 47°
2026-05-04 14:57 39.09094 26.13185 37067 ft 440 kts 47°
2026-05-04 14:57 39.13060 26.19195 37073 ft 440 kts 47°
2026-05-04 14:58 39.16990 26.25161 37076 ft 440 kts 47°
2026-05-04 14:58 39.20304 26.30193 37072 ft 439 kts 47°
2026-05-04 14:59 39.24882 26.37181 37073 ft 439 kts 47°
2026-05-04 15:00 39.30797 26.46226 37094 ft 438 kts 47°
2026-05-04 15:00 39.35133 26.51646 37094 ft 433 kts 33°
2026-05-04 15:01 39.42566 26.58284 37097 ft 432 kts 33°
2026-05-04 15:01 39.47493 26.62721 37087 ft 431 kts 33°
2026-05-04 15:02 39.52412 26.67146 37086 ft 430 kts 33°
2026-05-04 15:02 39.57322 26.71570 37088 ft 430 kts 33°
2026-05-04 15:03 39.62230 26.76003 37089 ft 429 kts 33°
2026-05-04 15:03 39.67104 26.80407 37094 ft 429 kts 33°
2026-05-04 15:04 39.72004 26.84843 37072 ft 430 kts 33°
2026-05-04 15:04 39.74494 26.87101 36824 ft 442 kts 33°
2026-05-04 15:04 39.76170 26.88620 36372 ft 444 kts 33°
2026-05-04 15:05 39.78701 26.90916 35804 ft 441 kts 34°
2026-05-04 15:05 39.81195 26.93186 35371 ft 435 kts 34°
2026-05-04 15:05 39.83670 26.95442 34838 ft 432 kts 34°
2026-05-04 15:05 39.86125 26.97682 34311 ft 428 kts 35°
2026-05-04 15:06 39.88549 26.99893 33826 ft 422 kts 35°
2026-05-04 15:06 39.90948 27.02079 33095 ft 421 kts 35°
2026-05-04 15:06 39.93350 27.04274 32238 ft 422 kts 35°
2026-05-04 15:07 39.98156 27.08675 30791 ft 420 kts 35°
2026-05-04 15:07 40.00537 27.10853 30207 ft 416 kts 34°
2026-05-04 15:07 40.02894 27.13012 29532 ft 412 kts 34°
2026-05-04 15:07 40.05192 27.15121 28864 ft 408 kts 34°
2026-05-04 15:08 40.07500 27.17241 28199 ft 404 kts 34°
2026-05-04 15:08 40.09787 27.19343 27616 ft 399 kts 34°
2026-05-04 15:08 40.12048 27.21424 26992 ft 394 kts 34°
2026-05-04 15:08 40.14274 27.23473 26383 ft 389 kts 34°
2026-05-04 15:09 40.16497 27.25459 25791 ft 385 kts 30°
2026-05-04 15:09 40.18914 27.26913 25217 ft 381 kts 19°
2026-05-04 15:09 40.21478 27.27635 24952 ft 372 kts
2026-05-04 15:10 40.26544 27.28015 24285 ft 360 kts
2026-05-04 15:10 40.29021 27.28189 24047 ft 353 kts
2026-05-04 15:10 40.33921 27.28536 24040 ft 353 kts
2026-05-04 15:11 40.36379 27.28710 24038 ft 353 kts
2026-05-04 15:11 40.38832 27.28882 24040 ft 353 kts
2026-05-04 15:11 40.41291 27.29053 24038 ft 353 kts
2026-05-04 15:11 40.43721 27.29220 23856 ft 353 kts
2026-05-04 15:12 40.46175 27.29387 23311 ft 353 kts
2026-05-04 15:12 40.48623 27.29556 22755 ft 350 kts
2026-05-04 15:12 40.51013 27.29921 22399 ft 341 kts 17°
2026-05-04 15:12 40.53169 27.31142 22137 ft 338 kts 33°
2026-05-04 15:13 40.54906 27.33210 21869 ft 339 kts 50°
2026-05-04 15:13 40.56042 27.35943 21621 ft 344 kts 65°
2026-05-04 15:13 40.56859 27.38910 21358 ft 344 kts 66°
2026-05-04 15:13 40.57655 27.41829 21098 ft 344 kts 66°
2026-05-04 15:14 40.58455 27.44793 20855 ft 343 kts 66°
2026-05-04 15:14 40.59257 27.47741 20632 ft 342 kts 66°
2026-05-04 15:14 40.60060 27.50667 20248 ft 338 kts 66°
2026-05-04 15:14 40.60858 27.53566 19751 ft 336 kts 65°
2026-05-04 15:15 40.61652 27.56445 19247 ft 334 kts 65°
2026-05-04 15:15 40.62441 27.59312 18784 ft 332 kts 65°
2026-05-04 15:15 40.63224 27.62169 18330 ft 330 kts 65°
2026-05-04 15:16 40.64773 27.67825 17316 ft 326 kts 65°
2026-05-04 15:16 40.65536 27.70617 16860 ft 323 kts 65°
2026-05-04 15:16 40.67037 27.76126 15919 ft 317 kts 65°
2026-05-04 15:17 40.67774 27.78845 15466 ft 314 kts 65°
2026-05-04 15:17 40.69224 27.84176 14598 ft 308 kts 65°
2026-05-04 15:17 40.69946 27.86829 14155 ft 306 kts 65°
2026-05-04 15:18 40.70661 27.89455 13721 ft 303 kts 65°
2026-05-04 15:18 40.71370 27.92065 13236 ft 301 kts 65°
2026-05-04 15:18 40.72073 27.94661 12747 ft 300 kts 65°
2026-05-04 15:19 40.73467 27.99836 11996 ft 300 kts 65°
2026-05-04 15:19 40.74164 28.02432 11679 ft 300 kts 65°
2026-05-04 15:19 40.75554 28.07604 10760 ft 299 kts 64°
2026-05-04 15:20 40.76254 28.10201 10289 ft 300 kts 64°
2026-05-04 15:20 40.76952 28.12795 9920 ft 298 kts 63°
2026-05-04 15:20 40.77627 28.15329 9658 ft 291 kts 63°
2026-05-04 15:20 40.78304 28.17853 9144 ft 293 kts 64°
2026-05-04 15:21 40.78987 28.20396 8619 ft 295 kts 64°
2026-05-04 15:21 40.79676 28.22960 8090 ft 297 kts 64°
2026-05-04 15:21 40.81045 28.28089 7076 ft 289 kts 64°
2026-05-04 15:22 40.81688 28.30526 6572 ft 280 kts 65°
2026-05-04 15:22 40.82328 28.32952 6042 ft 273 kts 65°
2026-05-04 15:22 40.83551 28.37556 5097 ft 261 kts 64°
2026-05-04 15:23 40.84148 28.39807 4990 ft 256 kts 64°
2026-05-04 15:23 40.84714 28.41965 4995 ft 241 kts 64°
2026-05-04 15:23 40.85249 28.44002 4992 ft 230 kts 63°
2026-05-04 15:23 40.85777 28.45988 4992 ft 229 kts 63°
2026-05-04 15:24 40.86951 28.50255 4997 ft 254 kts 63°
2026-05-04 15:24 40.88105 28.54446 4997 ft 232 kts 63°
2026-05-04 15:25 40.88633 28.56396 4993 ft 218 kts 62°
2026-05-04 15:25 40.89131 28.58237 4998 ft 208 kts 62°
2026-05-04 15:25 40.89614 28.60031 4998 ft 207 kts 62°
2026-05-04 15:26 40.90580 28.63575 5009 ft 206 kts 62°
2026-05-04 15:26 40.91096 28.65330 5004 ft 204 kts 60°
2026-05-04 15:26 40.92218 28.68793 5011 ft 206 kts 59°
2026-05-04 15:27 40.92796 28.70521 5010 ft 204 kts 56°
2026-05-04 15:27 40.94739 28.72951 5010 ft 190 kts 18°
2026-05-04 15:28 40.97281 28.73334 5001 ft 177 kts 358°
2026-05-04 15:28 40.98483 28.73312 5006 ft 170 kts 358°
2026-05-04 15:28 41.00829 28.73266 5009 ft 168 kts 358°
2026-05-04 15:29 41.02000 28.73244 5004 ft 169 kts 358°
2026-05-04 15:30 41.06658 28.73154 4214 ft 167 kts 358°
2026-05-04 15:30 41.10140 28.73087 3534 ft 167 kts 359°
2026-05-04 15:31 41.12480 28.73041 3073 ft 169 kts 360°
2026-05-04 15:31 41.13657 28.73019 2841 ft 170 kts 360°
2026-05-04 15:32 41.16863 28.72956 2203 ft 139 kts 359°
2026-05-04 15:32 41.18720 28.72921 1864 ft 129 kts
2026-05-04 15:33 41.20492 28.72887 1492 ft 126 kts 359°
2026-05-04 15:34 41.23119 28.72830 944 ft 126 kts 358°
2026-05-04 15:34 41.23990 28.72812 738 ft 127 kts 357°
2026-05-04 15:34 41.25734 28.72782 378 ft 124 kts 357°
2026-05-04 15:35 41.27340 28.72745 174 ft 86 kts 360°
2026-05-04 15:35 41.27781 28.72737 178 ft 42 kts 359°
2026-05-04 15:35 41.28003 28.72794 178 ft 27 kts 24°
2026-05-04 15:36 41.28080 28.72967 176 ft 16 kts 166°
2026-05-04 15:36 41.27958 28.72973 176 ft 19 kts 179°
2026-05-04 15:36 41.27815 28.72977 176 ft 22 kts 179°
2026-05-04 15:37 41.27652 28.72978 176 ft 25 kts 180°
2026-05-04 15:37 41.27478 28.72977 176 ft 24 kts 180°
2026-05-04 15:37 41.27298 28.72981 176 ft 27 kts 179°
2026-05-04 15:37 41.27102 28.72985 176 ft 26 kts 178°
2026-05-04 15:38 41.27011 28.72987 176 ft 13 kts 179°
2026-05-04 15:38 41.26922 28.72988 176 ft 12 kts 180°
2026-05-04 15:38 41.26830 28.72989 176 ft 15 kts 180°
2026-05-04 15:38 41.26741 28.72990 176 ft 10 kts 177°
2026-05-04 15:39 41.26706 28.73063 176 ft 12 kts 89°
2026-05-04 15:39 41.26709 28.73151 176 ft 9 kts 87°
2026-05-04 15:39 41.26588 28.73224 176 ft 14 kts 179°
2026-05-04 15:40 41.26483 28.73228 176 ft 17 kts 180°
2026-05-04 15:40 41.26355 28.73229 176 ft 20 kts 179°
2026-05-04 15:40 41.26240 28.73234 176 ft 12 kts 172°
2026-05-04 15:40 41.26208 28.73332 176 ft 14 kts 88°
2026-05-04 15:41 41.26211 28.73447 176 ft 6 kts 88°
2026-05-04 15:41 41.26213 28.73517 176 ft 9 kts 90°
2026-05-04 15:41 41.26221 28.73595 176 ft 9 kts 71°
2026-05-04 15:41 41.26236 28.73649 177 ft 2 kts 72°
2026-05-04 15:42 41.26236 28.73651 177 ft 0 kts 72°